Portada
METAR-TAF:

METAR-TAF

Aeroports :

Sisseton Municipal Airport

Sisseton, Dakota del Sud, Estats Units d'Amèrica

latitud: 45-40-08N, longitud: 096-59-29W, altitud: 354 m

Observació

L'informe es va fer fa 17 minuts, a les 21:56 UTC
Vent 3 kt del Oest
Temperatura 6°C
Humitat 52%
Pressió 1009 hPa

METAR: K8D3 222156Z AUTO 28003KT 06/M03 A2979 RMK AO1 SLP104 T00611028

Hora: 16:13 (22:13 UTC)


TAF: manca

Observacions i pronòstics meteorològics de més de 4000 aeroports (METAR i TAF).

Les estacions disponibles són els punts grocs i vermells al mapa.

Posi el ratolí al punt desitjat per veure el nom de l'estació.

Feu clic per veure les observacions i els pronòstics meteorològics.

Per canviar el mapa: feu clic els botons verds amb una creu de color negre per apropar; al botó verd amb un guió per allunyar la imatge; o en les fletxes verdes per a mapes adjacents.


METAR-TAF: